FW8060 Weather Reports


Display with metric or nautical units.
time (UTC)temp
F
wind
direction
speed
MPH
gust
MPH
rain 1hr
in
rain 24hr
in
rain mn
in
humidity
%
barometer
mb
20260905184432 63 327 1.0 3.0 0.00 0.00 0.00 69 1025.6
20260905183431 64 327 1.0 3.0 0.00 0.00 0.00 68 1025.6
20260905182433 64 327 2.0 4.0 0.00 0.00 0.00 67 1025.5
20260905181433 65 342 3.0 6.0 0.00 0.00 0.00 66 1025.6
20260905180437 65 340 3.0 8.0 0.00 0.00 0.00 65 1025.7
20260905175436 66 326 3.0 6.0 0.00 0.00 0.00 63 1025.7
20260905174433 66 331 4.0 9.0 0.00 0.00 0.00 62 1025.6
20260905173550 67 296 4.0 9.0 0.00 0.00 0.00 60 1025.3
20260905173437 67 333 3.0 6.0 0.00 0.00 0.00 61 1025.4
20260905171428 67 318 3.0 9.0 0.00 0.00 0.00 61 1025.4
20260905170552 68 338 5.0 11.0 0.00 0.00 0.00 60 1025.3
20260905170432 68 242 4.0 11.0 0.00 0.00 0.00 61 1025.4
20260905165417 69 275 5.0 12.0 0.00 0.00 0.00 59 1025.3
20260905163429 69 333 5.0 12.0 0.00 0.00 0.00 59 1025.3
20260905162430 69 337 6.0 13.0 0.00 0.00 0.00 59 1025.1
20260905161435 69 317 4.0 9.0 0.00 0.00 0.00 58 1025.1
20260905161414 70 0 5.0 11.0 0.00 0.00 0.00 60 1025.0
20260905160630 69 336 4.0 12.0 0.00 0.00 0.00 60 1025.2
20260905154428 70 239 4.0 9.0 0.00 0.00 0.00 59 1025.0
20260905153427 70 274 5.0 11.0 0.00 0.00 0.00 59 1025.0
20260905152424 70 288 5.0 12.0 0.00 0.00 0.00 60 1024.8
20260905151427 71 355 5.0 12.0 0.00 0.00 0.00 59 1024.7
20260905151357 70 323 5.0 11.0 0.00 0.00 0.00 59 1024.7
20260905145426 71 271 5.0 11.0 0.00 0.00 0.00 59 1024.7
20260905144426 70 292 5.0 12.0 0.00 0.00 0.00 59 1024.6
20260905143422 71 327 5.0 12.0 0.00 0.00 0.00 58 1024.5
20260905143136 71 271 5.0 12.0 0.00 0.00 0.00 58 1024.5
20260905142723 71 336 6.0 12.0 0.00 0.00 0.00 57 1024.5
20260905142442 71 268 5.0 10.0 0.00 0.00 0.00 59 1024.5
20260905140417 71 253 5.0 12.0 0.00 0.00 0.00 58 1024.5
20260905135624 71 257 5.0 13.0 0.00 0.00 0.00 56 1024.5
20260905133421 71 275 5.0 12.0 0.00 0.00 0.00 58 1024.3
20260905133352 71 249 5.0 13.0 0.00 0.00 0.00 58 1024.5
20260905131422 71 213 5.0 12.0 0.00 0.00 0.00 58 1024.5
20260905130415 71 299 6.0 12.0 0.00 0.00 0.00 59 1024.4
20260905125418 70 328 6.0 12.0 0.00 0.00 0.00 59 1024.5
20260905124416 70 340 7.0 18.0 0.00 0.05 0.00 60 1024.2
20260905123419 69 303 6.0 13.0 0.00 0.05 0.00 63 1024.3
20260905122410 71 265 5.0 12.0 0.00 0.05 0.00 59 1024.2
20260905121411 71 261 5.0 12.0 0.00 0.05 0.00 60 1024.1
20260905120850 70 275 6.0 13.0 0.00 0.05 0.00 64 1024.0
20260905115409 69 258 6.0 12.0 0.00 0.05 0.00 64 1024.0
20260905114418 69 313 6.0 11.0 0.00 0.05 0.00 62 1023.9
20260905113422 69 241 5.0 11.0 0.00 0.05 0.00 65 1024.0
20260905112414 69 295 6.0 11.0 0.00 0.05 0.00 64 1024.0
20260905111415 69 313 5.0 11.0 0.00 0.05 0.00 64 1023.9
20260905110412 69 296 5.0 11.0 0.00 0.05 0.00 64 1023.8
20260905105412 68 333 6.0 12.0 0.00 0.05 0.00 65 1023.7
20260905104411 68 299 6.0 12.0 0.00 0.05 0.00 67 1023.6
20260905103409 67 246 5.0 11.0 0.00 0.05 0.00 67 1023.5
20260905102405 67 290 6.0 13.0 0.00 0.05 0.00 67 1023.5
20260905101405 67 265 5.0 12.0 0.00 0.05 0.00 70 1023.4
20260905100404 66 261 6.0 12.0 0.00 0.05 0.00 72 1023.3
20260905095405 65 288 4.0 12.0 0.00 0.05 0.00 76 1023.2
20260905094409 66 309 5.0 14.0 0.00 0.05 0.00 73 1023.1
20260905093404 65 273 5.0 10.0 0.00 0.05 0.00 78 1023.1
20260905093357 65 281 5.0 13.0 0.00 0.05 0.00 78 1023.0
20260905092300 64 297 5.0 11.0 0.00 0.05 0.00 80 1022.9
20260905091249 65 287 5.0 10.0 0.00 0.05 0.00 82 1022.6
20260905091057 65 248 4.0 11.0 0.00 0.05 0.00 79 1022.7
20260905090523 65 240 6.0 12.0 0.00 0.05 0.00 80 1022.8
20260905084301 64 232 6.0 12.0 0.00 0.05 0.00 83 1022.4
20260905082403 63 265 6.0 13.0 0.00 0.05 0.00 84 1022.4
20260905081404 63 248 6.0 12.0 0.00 0.05 0.00 85 1022.2
20260905080404 63 275 3.0 10.0 0.00 0.05 0.00 85 1022.1
20260905075414 62 232 4.0 9.0 0.00 0.05 0.00 86 1022.0
20260905075347 62 265 5.0 10.0 0.00 0.05 0.00 87 1021.9
20260905074356 60 254 3.0 8.0 0.00 0.05 0.00 88 1021.8
20260905072413 60 237 3.0 7.0 0.00 0.05 0.00 89 1021.7
20260905071417 59 222 3.0 10.0 0.00 0.05 0.00 90 1021.6
20260905070414 59 232 2.0 7.0 0.00 0.05 0.00 91 1021.4
20260905065412 58 248 3.0 8.0 0.00 0.05 0.00 93 1021.2
20260905064403 57 209 3.0 6.0 0.00 0.05 0.00 93 1021.2
20260905063403 57 209 2.0 6.0 0.00 0.05 0.00 93 1021.1
20260905062405 56 233 3.0 7.0 0.00 0.05 0.00 93 1021.1
20260905061402 56 194 3.0 7.0 0.00 0.05 0.00 94 1021.0
20260905060410 56 234 3.0 7.0 0.00 0.05 0.00 94 1021.0
20260905060253 56 234 2.0 6.0 0.00 0.05 0.00 94 1020.9
20260905054415 55 206 2.0 5.0 0.00 0.05 0.00 94 1020.6
20260905054326 55 188 1.0 4.0 0.00 0.05 0.00 93 1020.6
20260905052408 55 188 3.0 5.0 0.00 0.05 0.00 93 1020.6
20260905051407 55 210 2.0 6.0 0.00 0.05 0.00 93 1020.4
20260905050403 55 250 2.0 5.0 0.00 0.05 0.00 93 1020.2
20260905045403 55 225 1.0 3.0 0.00 0.05 0.00 93 1020.0
20260905044401 55 188 2.0 4.0 0.00 0.05 0.00 93 1020.0
20260905043402 55 180 2.0 5.0 0.00 0.05 0.00 92 1019.9
20260905042410 56 208 2.0 5.0 0.00 0.05 0.00 92 1019.7
20260905041644 56 217 2.0 6.0 0.00 0.05 0.00 92 1019.5
20260905041406 56 225 2.0 6.0 0.00 0.05 0.00 92 1019.8
20260905040404 56 230 3.0 8.0 0.00 0.05 0.00 92 1019.6
20260905035555 56 227 3.0 7.0 0.00 0.05 0.00 92 1019.5
20260905033358 56 250 3.0 7.0 0.00 0.05 0.00 91 1019.4
20260905032357 56 220 3.0 7.0 0.00 0.05 0.00 91 1019.4
20260905031357 56 219 3.0 7.0 0.00 0.05 0.00 91 1019.4
20260905030400 56 227 2.0 8.0 0.00 0.05 0.00 91 1019.3
20260905025359 56 205 2.0 6.0 0.00 0.05 0.00 91 1019.2
20260905024358 56 226 3.0 6.0 0.00 0.05 0.00 90 1019.2
20260905023357 56 194 2.0 7.0 0.00 0.05 0.00 90 1019.2
20260905022352 56 230 2.0 5.0 0.00 0.05 0.00 90 1019.1
20260905021357 56 224 2.0 5.0 0.00 0.05 0.00 90 1019.2
20260905020354 56 215 2.0 5.0 0.00 0.05 0.00 90 1019.1
20260905020318 56 229 1.0 4.0 0.00 0.05 0.00 89 1019.0
20260905014353 56 227 1.0 4.0 0.00 0.05 0.00 89 1019.1
20260905013351 57 213 1.0 5.0 0.00 0.05 0.00 88 1019.0
20260905012344 57 245 2.0 5.0 0.00 0.05 0.00 88 1018.6
20260905011344 57 220 2.0 6.0 0.00 0.05 0.00 88 1018.7
20260905010347 58 276 2.0 7.0 0.00 0.05 0.00 87 1018.8
20260905005345 58 206 2.0 6.0 0.00 0.05 0.00 87 1018.7
20260905004344 58 230 2.0 5.0 0.00 0.05 0.00 87 1018.5
20260905003355 58 225 2.0 6.0 0.00 0.05 0.00 87 1018.4
20260905003229 58 236 2.0 5.0 0.00 0.05 0.00 87 1018.4
20260905001350 58 215 2.0 5.0 0.00 0.05 0.00 87 1018.3
20260905000355 58 219 2.0 5.0 0.00 0.05 0.00 87 1018.3
20260905000319 59 177 3.0 7.0 0.00 0.05 0.00 87 1018.2
20260904234348 59 217 2.0 5.0 0.00 0.05 0.00 87 1018.1
20260904233349 59 243 2.0 5.0 0.00 0.05 0.00 87 1018.2
20260904232348 60 217 3.0 6.0 0.00 0.05 0.00 87 1018.3
20260904231350 60 213 2.0 5.0 0.00 0.05 0.00 87 1018.2
20260904230357 60 219 2.0 5.0 0.00 0.05 0.00 87 1018.2
20260904225344 60 211 2.0 4.0 0.00 0.05 0.00 87 1018.1
20260904224348 60 219 1.0 4.0 0.00 0.05 0.00 88 1018.0
20260904223345 61 182 2.0 5.0 0.00 0.05 0.00 88 1018.0
20260904222339 62 213 2.0 5.0 0.00 0.05 0.00 88 1017.9
20260904221339 62 232 1.0 4.0 0.00 0.05 0.00 88 1017.7
20260904220340 62 161 2.0 5.0 0.00 0.05 0.00 87 1017.7
20260904215344 63 266 2.0 6.0 0.00 0.05 0.05 86 1017.7
20260904214345 63 269 2.0 7.0 0.00 0.05 0.05 86 1017.6
20260904213348 63 233 2.0 6.0 0.00 0.05 0.05 87 1017.6
20260904212336 64 246 2.0 6.0 0.00 0.05 0.05 87 1017.6
20260904211338 64 264 2.0 6.0 0.00 0.05 0.05 87 1017.5
20260904210334 65 274 2.0 7.0 0.00 0.05 0.05 87 1017.5
20260904205330 65 248 2.0 5.0 0.00 0.05 0.05 88 1017.3
20260904204330 65 265 2.0 7.0 0.00 0.05 0.05 88 1017.3
20260904203334 65 270 3.0 9.0 0.00 0.05 0.05 88 1017.3
20260904202336 65 221 3.0 9.0 0.00 0.05 0.05 89 1017.3
20260904201332 65 254 4.0 11.0 0.00 0.05 0.05 89 1017.2
20260904200349 66 261 3.0 8.0 0.00 0.05 0.05 89 1016.9
20260904200328 66 202 3.0 8.0 0.00 0.05 0.05 89 1017.0
20260904194327 66 238 3.0 9.0 0.00 0.05 0.05 89 1016.6
20260904193330 66 243 3.0 9.0 0.00 0.05 0.05 88 1016.4
20260904192328 66 273 4.0 8.0 0.00 0.05 0.05 88 1016.2
20260904191336 67 271 4.0 10.0 0.00 0.05 0.05 87 1016.2
20260904190814 67 282 4.0 11.0 0.00 0.05 0.05 86 1016.2
20260904185327 67 285 4.0 10.0 0.00 0.05 0.05 86 1016.0
20260904184828 67 263 4.0 10.0 0.00 0.05 0.05 86 1015.9